This demonstration page uses our WeatherBlox Daily Observations layout. Learn more.

Left ArrowRight Arrow

Hourly Observations for October 15, 2020

Temp ( °F °C ) Dew Point ( °F °C ) Humidity (%) Winds ( mph kmh ) Pressure ( in mb ) Visibility ( mi km ) Precip ( " mm )
12:15 am 00:15 Cloudy 53 11.6 36 2.1 52 52 N 13 20 30.07 1018 10 16 N/A
12:35 am 00:35 Cloudy 52 11.2 36 2.1 54 54 N 12 19 30.05 1018 10 16 N/A
12:55 am 00:55 Cloudy 52 11 35 1.6 53 53 N 14 22 30.07 1018 10 16 N/A
1:15 am 01:15 Mostly Cloudy 51 10.6 35 1.6 54 54 N 18 30 30.08 1019 10 16 N/A
1:35 am 01:35 Mostly Cloudy 51 10.5 35 1.7 55 55 NNW 16 26 30.07 1018 10 16 N/A
1:55 am 01:55 Mostly Cloudy 50 10.1 35 1.8 57 57 NNW 15 24 30.09 1019 10 16 N/A
2:15 am 02:15 Mostly Cloudy 50 9.8 36 2 59 59 NNW 12 19 30.09 1019 10 16 N/A
2:35 am 02:35 Partly Cloudy 49 9.6 36 2.1 60 60 NNW 16 26 30.11 1020 10 16 N/A
2:55 am 02:55 Partly Cloudy 49 9.2 36 2.2 62 62 NNW 13 20 30.13 1020 10 16 N/A
3:15 am 03:15 Clear 48 9 37 2.5 64 64 NNW 16 26 30.13 1020 10 16 N/A
3:35 am 03:35 Clear 47 8.5 37 2.6 67 67 NNW 12 19 30.16 1021 10 16 N/A
3:55 am 03:55 Clear 47 8.2 37 2.5 68 68 NNW 13 20 30.16 1021 10 16 N/A
4:15 am 04:15 Clear 46 7.6 37 2.5 70 70 NNW 13 20 30.17 1022 10 16 N/A
4:35 am 04:35 Clear 45 7 36 2.2 72 72 NNW 10 17 30.19 1022 10 16 N/A
4:55 am 04:55 Clear 44 6.5 36 2.2 74 74 NNW 13 20 30.18 1022 10 16 N/A
5:15 am 05:15 Clear 43 6.2 36 2.2 76 76 NNW 9 15 30.21 1023 10 16 N/A
5:35 am 05:35 Clear 43 5.9 36 2.1 77 77 NNW 8 13 30.21 1023 10 16 N/A
5:55 am 05:55 Clear 41 5.2 36 2 80 80 NNW 9 15 30.24 1024 10 16 N/A
6:15 am 06:15 Clear 41 4.8 35 1.8 81 81 NW 8 13 30.26 1025 10 16 N/A
6:35 am 06:35 Clear 40 4.2 35 1.5 83 83 NW 7 11 30.27 1025 10 16 N/A
6:55 am 06:55 Clear 38 3.6 34 1.1 84 84 NW 5 7 30.27 1025 10 16 N/A
7:15 am 07:15 Clear 37 2.7 33 0.7 87 87 NW 5 7 30.28 1025 10 16 N/A
7:35 am 07:35 Clear 36 2.2 33 0.5 89 89 NW 5 7 30.29 1026 10 16 N/A
7:55 am 07:55 Sunny 35 1.8 33 0.3 90 90 NW 5 7 30.31 1026 10 16 N/A
8:15 am 08:15 Sunny 36 2.1 33 0.5 89 89 NW 5 7 30.32 1027 10 16 N/A
8:35 am 08:35 Sunny 38 3.1 34 1.3 88 88 NW 5 7 30.31 1026 10 16 N/A
8:55 am 08:55 Sunny 40 4.2 35 1.7 84 84 NNW 7 11 30.31 1026 10 16 N/A
9:15 am 09:15 Sunny 41 5.2 34 1.1 75 75 NNW 9 15 30.30 1026 10 16 N/A
9:35 am 09:35 Sunny 43 5.9 34 1.2 72 72 NNW 9 15 30.30 1026 10 16 N/A
9:55 am 09:55 Sunny 43 6.3 33 0.8 68 68 NNW 12 19 30.31 1026 10 16 N/A
10:15 am 10:15 Sunny 45 7 33 0.3 63 63 NNW 8 13 30.30 1026 10 16 N/A
10:35 am 10:35 Sunny 46 7.9 31 -0.4 56 56 NNW 9 15 30.30 1026 10 16 N/A
10:55 am 10:55 Sunny 47 8.2 31 -0.5 55 55 NW 10 17 30.30 1026 10 16 N/A
11:15 am 11:15 Sunny 48 8.8 30 -1 51 51 NW 9 15 30.29 1026 10 16 N/A
11:35 am 11:35 Sunny 48 9.1 29 -1.8 47 47 NW 9 15 30.29 1026 10 16 N/A
11:55 am 11:55 Sunny 49 9.6 28 -2.2 44 44 NW 12 19 30.29 1026 10 16 N/A
12:15 pm 12:15 Sunny 50 10 29 -1.8 44 44 NW 8 13 30.28 1025 10 16 N/A
12:35 pm 12:35 Sunny 50 10.2 29 -1.5 44 44 NW 10 17 30.28 1025 10 16 N/A
12:55 pm 12:55 Partly Cloudy 51 10.4 29 -1.5 44 44 WNW 8 13 30.27 1025 10 16 N/A
1:15 pm 13:15 Partly Cloudy 52 11 28 -2.3 40 40 NW 12 19 30.25 1025 10 16 N/A
1:35 pm 13:35 Sunny 53 11.4 28 -2.5 38 38 WNW 9 15 30.25 1024 10 16 N/A
1:55 pm 13:55 Partly Cloudy 53 11.9 28 -2.2 38 38 N 8 13 30.24 1024 10 16 N/A
2:15 pm 14:15 Partly Cloudy 53 11.9 28 -2.4 37 37 WNW 7 11 30.23 1024 10 16 N/A
2:35 pm 14:35 Mostly Cloudy 55 13 28 -2.5 34 34 NNW 9 15 30.22 1023 10 16 N/A
2:55 pm 14:55 Mostly Cloudy 55 13 27 -2.9 33 33 NW 10 17 30.21 1023 10 16 N/A
3:15 pm 15:15 Partly Cloudy 55 12.6 25 -3.8 32 32 NNW 12 19 30.21 1023 10 16 N/A
3:35 pm 15:35 Partly Cloudy 55 12.9 25 -4.1 31 31 NW 14 22 30.21 1023 10 16 N/A
3:55 pm 15:55 Partly Cloudy 55 13 25 -3.8 31 31 NNW 7 11 30.21 1023 10 16 N/A
4:15 pm 16:15 Mostly Cloudy 55 13 25 -3.9 31 31 NNW 9 15 30.21 1023 10 16 N/A
4:35 pm 16:35 Partly Cloudy 55 12.5 25 -4.1 31 31 NNW 10 17 30.20 1023 10 16 N/A
4:55 pm 16:55 Partly Cloudy 55 13 25 -3.9 31 31 NNW 7 11 30.21 1023 10 16 N/A
5:15 pm 17:15 Partly Cloudy 53 11.9 25 -3.9 33 33 NW 5 7 30.22 1023 10 16 N/A
5:35 pm 17:35 Partly Cloudy 55 12.9 25 -3.9 31 31 N 8 13 30.20 1023 10 16 N/A
5:55 pm 17:55 Partly Cloudy 54 12.2 25 -3.9 33 33 N 3 6 30.20 1023 10 16 N/A
6:15 pm 18:15 Partly Cloudy 54 12.2 25 -4 32 32 NNW 5 7 30.20 1023 10 16 N/A
6:35 pm 18:35 Partly Cloudy 52 11.3 25 -4 34 34 N 5 7 30.22 1023 10 16 N/A
6:55 pm 18:55 Partly Cloudy 50 10.1 24 -4.2 37 37 N N/A 30.24 1024 10 16 N/A
7:15 pm 19:15 Clear 48 9.1 24 -4.3 39 39 N N/A 30.25 1024 10 16 N/A
7:35 pm 19:35 Clear 48 9 25 -3.8 41 41 N N/A 30.26 1025 10 16 N/A
7:55 pm 19:55 Clear 45 7.2 26 -3.1 48 48 N N/A 30.29 1026 10 16 N/A
8:15 pm 20:15 Clear 44 6.7 26 -3.6 48 48 N N/A 30.30 1026 7 11 N/A
8:35 pm 20:35 Clear 43 6.3 25 -3.9 48 48 N N/A 30.33 1027 7 11 N/A
8:55 pm 20:55 Clear 41 4.8 25 -3.8 54 54 N N/A 30.33 1027 7 11 N/A
9:15 pm 21:15 Clear 42 5.3 25 -3.7 53 53 N N/A 30.34 1027 7 11 N/A
9:35 pm 21:35 Clear 39 4.1 25 -3.8 57 57 N N/A 30.36 1028 7 11 N/A
9:55 pm 21:55 Partly Cloudy 41 4.8 25 -3.7 54 54 WNW 5 7 30.36 1028 7 11 N/A
10:15 pm 22:15 Partly Cloudy 39 3.7 24 -4.4 56 56 WNW 5 7 30.37 1028 7 11 N/A
10:35 pm 22:35 Clear 38 3.3 23 -4.8 56 56 W 7 11 30.39 1029 10 16 N/A
10:55 pm 22:55 Clear 38 3.5 23 -5.1 54 54 WNW 8 13 30.39 1029 10 16 N/A
11:15 pm 23:15 Clear 41 4.8 22 -5.7 47 47 WNW 8 13 30.38 1029 10 16 N/A
11:35 pm 23:35 Clear 39 4 22 -5.8 49 49 NW 7 11 30.39 1029 10 16 N/A
11:55 pm 23:55 Clear 38 3.4 23 -5.2 54 54 NW 7 11 30.39 1029 10 16 N/A

Powered by AerisWeather